This is the latest recevied weather packets stored in our database for station/object KO4FR. If no packets are shown the sender has not sent any weather packets the latest 10 day(s).
| Time | Temp. | Humidity | Pressure | Rain* | Wind** | Luminosity | Snow |
|---|---|---|---|---|---|---|---|
| 1778127610 | 19.44° C | 36% | 1012.2 hPa | 0 mm | - | - | - |
| 1778127311 | 20° C | 40% | 1012.3 hPa | 0 mm | - | - | - |
| 1778127010 | 20° C | 43% | 1012.3 hPa | 0 mm | - | - | - |
| 1778126710 | 20° C | 47% | 1012.2 hPa | 0 mm | - | - | - |
| 1778126410 | 20° C | 49% | 1012.1 hPa | 0 mm | - | - | - |
| 1778126110 | 20° C | 50% | 1011.8 hPa | 0 mm | - | - | - |
| 1778125810 | 20° C | 51% | 1011.6 hPa | 0 mm | - | - | - |
| 1778125510 | 20° C | 51% | 1011.4 hPa | 0 mm | - | - | - |
| 1778125210 | 20° C | 53% | 1011.3 hPa | 0 mm | - | - | - |
| 1778124910 | 20° C | 53% | 1011.3 hPa | 0 mm | - | - | - |
| 1778124610 | 20° C | 54% | 1011.4 hPa | 0 mm | - | - | - |
| 1778124310 | 20° C | 55% | 1011.6 hPa | 0 mm | - | - | - |
| 1778124010 | 20.56° C | 56% | 1011.4 hPa | 0 mm | - | - | - |
| 1778123710 | 20° C | 55% | 1011.5 hPa | 0 mm | - | - | - |
| 1778123410 | 20° C | 54% | 1011.4 hPa | 0 mm | - | - | - |
| 1778123110 | 20° C | 53% | 1011.4 hPa | 0 mm | - | - | - |
| 1778122810 | 20° C | 52% | 1011.5 hPa | 0 mm | - | - | - |
| 1778122510 | 20° C | 52% | 1011.6 hPa | 0 mm | - | - | - |
| 1778122210 | 20° C | 51% | 1011.5 hPa | 0 mm | - | - | - |
| 1778121910 | 20° C | 51% | 1011.5 hPa | 0 mm | - | - | - |
| 1778121610 | 20° C | 50% | 1011.5 hPa | 0 mm | - | - | - |
| 1778121010 | 20° C | 50% | 1011.2 hPa | 0 mm | - | - | - |
| 1778120710 | 20° C | 50% | 1011.2 hPa | 0 mm | - | - | - |
| 1778120410 | 20° C | 49% | 1011.2 hPa | 0 mm | - | - | - |
| 1778120109 | 20° C | 50% | 1011 hPa | 0 mm | - | - | - |
* Rain latest hour (hover to see other rain measurements)
** Current wind speed in m/s (hover to see current wind gust speed)